Location: İstanbul
(41.0082°N, 28.9784°E)
Time: 19:17:01
(UTC+03:00)

Tiangong - Visible Passes

Search period start: 19 April 2024 00:00
Search period end: 29 April 2024 00:00
Orbit: 371 x 379 km, 41.5° (Epoch: 19 April)

Date Brightness Start Highest point End Pass type
(mag) Time Alt. Az. Time Alt. Az. Time Alt. Az.
19 Apr -1.6 20:19:44 10° SW 20:22:38 39° SSE 20:25:33 10° E visible
19 Apr -0.7 21:56:04 10° W 21:57:57 33° W 21:57:57 33° W visible
20 Apr -2.3 20:53:19 10° WSW 20:56:25 80° SSE 20:58:24 20° E visible
20 Apr 0.9 22:29:58 10° W 22:30:26 13° W 22:30:26 13° W visible
21 Apr -2.2 21:27:09 10° W 21:30:14 79° N 21:30:43 59° ENE visible
22 Apr -2.2 20:24:17 10° W 20:27:22 86° N 20:30:28 10° E visible
22 Apr -0.7 22:00:55 10° W 22:02:53 35° W 22:02:53 35° W visible
23 Apr -2.2 20:58:01 10° W 21:01:06 82° N 21:02:56 22° E visible
23 Apr 1.0 22:34:40 10° W 22:34:56 12° W 22:34:56 12° W visible
24 Apr -2.3 21:31:40 10° W 21:34:44 66° SSW 21:34:54 64° S visible
25 Apr -2.2 20:28:38 10° W 20:31:43 89° SSW 20:34:48 10° E visible
25 Apr 0.0 22:05:24 10° W 22:06:48 20° WSW 22:06:48 20° WSW visible
26 Apr -1.7 21:02:12 10° W 21:05:11 48° SSW 21:06:40 25° SE visible
27 Apr -0.3 21:36:04 10° W 21:38:24 20° SSW 21:38:29 20° SSW visible
28 Apr -1.0 20:32:33 10° W 20:35:23 33° SSW 20:38:13 10° SE visible
